Location: Paderno d�Adda
(45.6667°N, 9.4333°E)
Time: 09:24:53
(UTC+00:00)

ATLAS 3B R/B - Pass Details

Date: 18 January 2021
Orbit: 1006 x 1189 km, 63.8° (Epoch: 07 March)

Event Time Altitude Azimuth Distance (km) Brightness Sun altitude
Rises 16:43:23 0° 321° (NW) 3,859 5.8 -6.3°
Reaches altitude 10° 16:45:59 10° 322° (NW) 2,926 5.2 -6.7°
Maximum altitude 16:52:58 89° 238° (WSW) 1,123 2.9 -7.8°
Drops below altitude 10° 17:00:15 10° 145° (SE) 3,043 4.9 -9.0°
Sets 17:03:00 0° 145° (SE) 4,022 5.6 -9.4°
